Pilot information for Tulloch Airstrip

[ general | frequencies | runways | weather | notam | navaids | links ]

Caution: This page displays community-maintained data: information may be missing, incorrect, or out of date. Please confirm with an official source before making travel plans.

General information for Tulloch Airstrip

Type: local airport(light traffic)
Scheduled airline service: no
Serves: Bog Walk, Saint Catherine, Jamaica
Latitude: 18.104597 | 18 6.275814 N | N18 06 16
Longitude: -76.987810 | 76 59.268608 W | W076 59 16
Field elevation: 300 ft/91 m MSL

Radio communication frequencies for Tulloch Airstrip

No communications frequencies known for Tulloch Airstrip.

Members can add and update frequencies.

Runways at Tulloch Airstrip

No runway information available for Tulloch Airstrip.

Members can add and update runway information.

Aviation weather for Tulloch Airstrip

Current conditions (METAR) for Tulloch Airstrip

Closest report is Norman Manley International Airport, 15.3 nm (28.3 km) SE. Retrieved 2015/06/30 03:00:

MKJP 300300Z 13015KT 9999 FEW024 29/23 Q1018

Forecast (TAF) for Tulloch Airstrip

Closest forecast is Norman Manley International Airport, 15.3 nm (28.3 km) SE. Retrieved 2015/06/26 12:13:

TAF MKJP 261045Z 2612/2712 13025G35KT 9999 FEW024 
      BECMG 2701/2703 13015KT

Notices to Airmen (NOTAM) for Tulloch Airstrip

We have no current NOTAMs for Tulloch Airstrip. Please check with an official source to confirm.